Tracking 30744 objects as of 24-Jun-2025
HD Live streaming from Space Station
objects crossing your sky now

STARLINK-30313

Track STARLINK-30313 now!
10-day predictions
STARLINK-30313 is classified as:


NORAD ID: 57676
Int'l Code: 2023-124P
Perigee: 481.6 km
Apogee: 483.2 km
Inclination: 53.2 °
Period: 94.1 minutes
Semi major axis: 6853 km
RCS: Unknown
Launch date: August 22, 2023
Source: United States (US)
Launch site: AIR FORCE WESTERN TEST RANGE (AFWTR)
Your satellite tracking list
Your tracking list is empty




NASA's NSSDC Master Catalog

Two Line Element Set (TLE):
1 57676U 23124P   25174.70072881  .00000188  00000-0  18484-4 0  9991
2 57676  53.1618 329.9711 0001173  76.3378 283.7753 15.30192277103911
Source of the keplerian elements: AFSPC